Joplin, MO

7:14 PM CST on November 11, 2019 (GMT -0600)
Joplin Regional

Weather History for KJLN - September, 2019

Change the Weather History Date:

Saturday, September 14, 2019

  Actual Average Record
Temperature  
Mean Temperature 77 °F 72 °F  
Max Temperature 88 °F 83 °F 100 °F (1956)
Min Temperature 66 °F 60 °F 41 °F (1974)
Degree Days  
Heating Degree Days 0 1  
Month to date heating degree days 0 3  
Since 1 July heating degree days 0 4  
Cooling Degree Days 12 7  
Month to date cooling degree days 204 133  
Year to date cooling degree days 1455 1560  
Growing Degree Days 27 (Base 50)    
Moisture  
Dew Point 65 °F    
Average Humidity 68    
Maximum Humidity 84    
Minimum Humidity 53    
Precipitation  
Precipitation 0.00 in 0.17 in 2.18 in (1972)
Month to date precipitation 0.72 2.29  
Year to date precipitation 49.61 33.26  
Sea Level Pressure  
Sea Level Pressure 30.14 in    
Wind  
Wind Speed 6 mph ()    
Max Wind Speed 16 mph    
Max Gust Speed 24 mph    
Visibility 10.0 miles    
Events      
T = Trace of Precipitation, MM = Missing Value Source: Averaged Metar Reports

Daily Weather History Graph

Daily Weather History Graph

Search for Another Location

Airport or City:

Astronomy

Sep. 14, 2019 Rise Set
Actual Time 6:59 AM CDT 7:27 PM CDT
Civil Twilight 6:32 AM CDT 7:53 PM CDT
Nautical Twilight 6:02 AM CDT 8:24 PM CDT
Astronomical Twilight 5:30 AM CDT 8:55 PM CDT
Moon 8:08 PM CDT (9/14) 7:14 AM CDT (9/14)
Length of Visible Light 13h 20m
Length of Day
12h 28m
Full, 100% of the Moon is Illuminated
Sep 14
Full
Sep 21
Last Quarter
Sep 28
New
Oct 5
First Quarter
Oct 13
Full

Hourly Weather History & Observations

Time (CDT) Temp. Heat Index Dew Point Humidity Pressure Visibility Wind Dir Wind Speed Gust Speed Precip Events Conditions
12:53 AM 66.0 °F - 61.0 °F 84% 30.19 in 10.0 mi ESE 4.6 mph - N/A   Clear
1:53 AM 66.9 °F - 60.1 °F 79% 30.18 in 10.0 mi ESE 5.8 mph - N/A   Clear
2:53 AM 68.0 °F - 60.1 °F 76% 30.17 in 10.0 mi SE 4.6 mph - N/A   Scattered Clouds
3:53 AM 68.0 °F - 60.1 °F 76% 30.16 in 10.0 mi SE 5.8 mph - N/A   Clear
4:53 AM 68.0 °F - 60.1 °F 76% 30.17 in 10.0 mi SE 5.8 mph - N/A   Clear
5:53 AM 69.1 °F - 60.1 °F 73% 30.17 in 10.0 mi SE 8.1 mph - N/A   Clear
7:53 AM 70.0 °F - 57.0 °F 63% 30.19 in 10.0 mi SSE 6.9 mph - N/A   Clear
8:53 AM 75.0 °F - 57.0 °F 53% 30.19 in 10.0 mi SSE 9.2 mph - N/A   Clear
9:53 AM 78.1 °F - 61.0 °F 56% 30.19 in 10.0 mi SSE 10.4 mph - N/A   Clear
10:53 AM 79.0 °F - 64.0 °F 60% 30.20 in 10.0 mi South 8.1 mph - N/A   Mostly Cloudy
11:53 AM 84.0 °F 87.8 °F 69.1 °F 61% 30.18 in 10.0 mi SSW 11.5 mph - N/A   Clear
12:53 PM 87.1 °F 92.0 °F 70.0 °F 57% 30.16 in 10.0 mi SSW 12.7 mph - N/A   Clear
1:53 PM 88.0 °F 93.8 °F 71.1 °F 57% 30.14 in 10.0 mi SW 12.7 mph 19.6 mph N/A   Clear
2:53 PM 87.1 °F 91.3 °F 69.1 °F 55% 30.11 in 10.0 mi SSW 10.4 mph - N/A   Clear
3:53 PM 84.9 °F 88.2 °F 68.0 °F 57% 30.10 in 10.0 mi SSW 9.2 mph - N/A   Clear
4:53 PM 87.1 °F 92.0 °F 70.0 °F 57% 30.08 in 10.0 mi SSW 10.4 mph - N/A   Clear
5:53 PM 84.9 °F 88.8 °F 69.1 °F 59% 30.08 in 10.0 mi South 8.1 mph - N/A   Clear
6:53 PM 81.0 °F 84.4 °F 70.0 °F 69% 30.08 in 10.0 mi South 6.9 mph - N/A   Clear
7:53 PM 79.0 °F - 69.1 °F 72% 30.08 in 10.0 mi SSE 5.8 mph - N/A   Clear
8:53 PM 75.9 °F - 69.1 °F 79% 30.09 in 10.0 mi South 4.6 mph - N/A   Clear
9:53 PM 75.9 °F - 69.1 °F 79% 30.11 in 10.0 mi SSE 5.8 mph - N/A   Clear
10:53 PM 75.9 °F - 69.1 °F 79% 30.12 in 10.0 mi SSE 4.6 mph - N/A   Clear
11:53 PM 73.9 °F - 68.0 °F 82% 30.12 in 10.0 mi SSE 5.8 mph - N/A   Clear